NOAA-16
1 26536U 00055A 11362.71233835 .00000254 00000-0 16192-3 0 05637
2 26536 099.1178 036.9974 0010320 202.9528 157.1160 14.12691289580828
NOAA-17
1 27453U 02032A 11362.90646555 .00000330 00000-0 16055-3 0 05454
2 27453 098.3558 033.4412 0010916 301.5110 058.4995 14.24376055494370
NOAA-18
1 28654U 05018A 11362.96206280 -.00000061 00000-0 -85412-5 0 00204
2 28654 099.0238 314.8439 0013556 277.6555 082.3081 14.11580877340402
NOAA-19
1 33591U 09005A 11362.93166565 -.00000013 00000-0 16779-4 0 02092
2 33591 098.8490 299.9987 0014429 142.6150 217.6026 14.11270639148857
HUBBLE
1 20580U 90037B 11362.92458795 .00001653 00000-0 11045-3 0 9142
2 20580 028.4692 183.8965 0003326 036.2633 323.8125 15.02039929988958
ISS
1 25544U 98067A 11363.93815972 .00015203 00000-0 19723-3 0 7217
2 25544 051.6440 256.1914 0024042 220.3253 314.6768 15.58736096751467
CO-58
1 28895U 05043F 11362.67310690 .00000888 00000-0 19218-3 0 00606
2 28895 097.9386 231.2480 0017478 333.6500 026.3868 14.60416076328622
FALCON
1 30776U 07006E 11363.91478759 .00004106 00000-0 27663-3 0 2485
2 30776 035.4331 235.8253 0003611 327.8206 032.2291 15.06276004264553
MAST
1 31126U 07012K 11362.94664932 .00000668 00000-0 16008-3 0 03519
2 31126 097.8821 019.0291 0093190 284.6787 074.4098 14.53984871249384
CAPE1
1 31130U 07012P 11362.49111331 .00000964 00000-0 23068-3 0 03573
2 31130 097.8858 015.1141 0100715 297.8710 061.2354 14.52703222248841
COMPASS
1 32787U 08021E 11362.83375360 .00002332 00000-0 29077-3 0 01851
2 32787 097.8255 062.8460 0014374 260.5585 099.3970 14.83320523198401
AAUSAT2
1 32788U 08021F 11363.64655216 .00002077 00000-0 25809-3 0 1735
2 32788 097.8262 063.9377 0013864 257.5345 102.4318 14.83584149198545
DO-64
1 32789U 08021G 11362.75986473 .00004403 00000-0 52646-3 0 1889
2 32789 097.8359 064.5152 0014173 258.8164 101.1433 14.84609180198434
CO-66
1 32791U 08021J 11362.83050034 .00001976 00000-0 25006-3 0 01800
2 32791 097.8263 062.7032 0014685 260.1391 099.8154 14.82858782198349
RS-30
1 32953U 08025A 11363.17167084 .00000010 00000-0 00000 0 0 3854
2 32953 082.5013 041.4883 0018036 324.8864 035.1026 12.43019037163315
TACSAT-3
1 35001U 09028A 11362.64977773 .00071291 00000-0 67610-3 0 8117
2 35001 040.4534 062.0143 0006011 182.0488 178.0313 15.65891704147355
PHARMSAT
1 35002U 09028B 11362.57561977 .00043547 00000-0 50738-3 0 07503
2 35002 040.4698 063.6051 0011099 231.9433 128.0388 15.60762182147335
HAWKSAT1
1 35003U 09028C 11276.79285837 .02274821 58283-2 19360-2 0 8114
2 35003 040.4398 174.3672 0011414 274.3918 085.3844 16.13812532134570
CP6
1 35004U 09028D 11247.64656856 .16152067 73217-5 10011-2 0 7842
2 35004 040.4403 342.9642 0002956 038.0069 322.2231 16.41039951130139
METEOR-M
1 35865U 09049A 11363.71242240 .00000003 00000-0 21003-4 0 225
2 35865 098.6806 056.0338 0002149 169.3497 190.7722 14.21852381118379
RS-38
1 35869U 09049E 11363.75780393 .00000077 00000-0 54585-4 0 120
2 35869 098.6774 056.0983 0004465 175.5682 184.5534 14.22047181118390
ARISSAT1
1 37772U 98067CK 11363.87162240 .01100589 77367-3 99248-3 0 4571
2 37772 051.6257 241.6168 0009645 209.4273 150.6405 16.12063625 23236
SRMSAT
1 37839U 11058B 11362.94519084 .00000619 00000-0 19019-3 0 00583
2 37839 019.9668 315.6119 0019732 136.6080 223.5896 14.12012478011011
JUGNU
1 37841U 11058D 11363.89940659 .00000264 00000-0 00000 0 0 578
2 37841 019.9721 311.3696 0011789 122.7748 237.3887 14.10104352 11124
RAX-2
1 37853U 11061D 11363.93544338 .00003047 00000-0 25523-3 0 555
2 37853 101.7078 321.8944 0252547 115.7027 247.0481 14.78300937 9222
AUBIESAT
1 37854U 11061E 11363.85913429 .00003173 00000-0 26134-3 0 580
2 37854 101.7113 321.8355 0254510 115.5228 247.2523 14.78534086 9203
HRBE
1 37855U 11061F 11362.98088781 .00002997 00000-0 24773-3 0 00689
2 37855 101.7105 320.5563 0254660 117.9030 244.8202 14.78472747009072
